Terug naar catalogus

STARLING 2

ActiefWetenschapPO
NORAD 57387·PAYLOAD·🇺🇸 United States

Gelanceerd Jul 18, 2023 vanaf Rocket Lab Launch Complex 1

Loading…

Volgende Passages (komende 24 uur)

TLE

VersSource: Space-Track

Epoch: Sep 14, 2026, 22:59 UTC

1 57387U 23100B   26257.95830826  .00000981  00000-0  71525-4 0  9991
2 57387  99.5053 296.6594 0005273 182.5860 177.5335 15.07034258173424

Volg STARLING 2 in realtime met AllMySat

Download on the App Store